Location: Campo Claro
(10.4907°N, 66.8285°W)
Time: 04:38:12
(UTC+00:00)

Cosmos 1553 Rocket - Pass Details

Date: 08 July 2022
Orbit: 941 x 1009 km, 82.9° (Epoch: 14 August)

Event Time Altitude Azimuth Distance (km) Brightness Sun altitude
Rises 00:13:37 0° 212° (SSW) 3,689 7.1 -18.6°
Reaches altitude 10° 00:16:42 10° 227° (SW) 2,751 6.6 -19.3°
Maximum altitude 00:21:28 23° 276° (W) 2,003 6.4 -20.3°
Drops below altitude 10° 00:26:17 10° 326° (NW) 2,774 7.3 -21.3°
Sets 00:29:26 0° 340° (NNW) 3,727 7.8 -22.0°
